sat.trackr.live / text

‹ back to catalog

SPOQC

NORAD 68423 · 2026-067H

PAYLOAD ACTIVE UNKNOWN

§ Identity

Operator
Country
NETH
Launch date
2026-03-30
Launch site
AFWTR
Launch vehicle
Mass (kg)
RCS (m²)

External: N2YO · Heavens-Above · Gunter

§ Orbital elements

Epoch: 2026-09-20T03:49:14.487744Z

Period
94.76 min
Inclination
97.4614°
Eccentricity
0.0001445
Mean motion
15.19595495 rev/d
Perigee alt
506.1 km
Apogee alt
508.1 km
Semi-major
6,885.2 km
B*
1.7179e-4
RAAN
220.4134°
Arg perigee
72.9919°
Mean anomaly
287.1474°
Rev number
2,636

§ Raw data

SPOQC1 68423U 26067H   26263.15919546  .00003588  00000+0  17179-3 0  99942 68423  97.4614 220.4134 0001445  72.9919 287.1474 15.19595495 26366

JSON: /api/v1/satellites/68423 · /tle

For live sub-satellite position, see the globe view (requires WebGL).

§ Visibility from observer

Set your observer location to see the next 7 days of passes ≥ 10°. The values pass through the URL so the page stays shareable.

No JS? Fill the form by hand. The geolocation button needs JavaScript.